Location: Dugenta
(41.1333°N, 14.4500°E)
Time: 10:38:42
(UTC+00:00)

ERS-2 - Pass Details

Date: 03 March 2021
Orbit: 492 x 496 km, 98.6° (Epoch: 20 April)

Event Time Altitude Azimuth Distance (km) Brightness Sun altitude
Rises 18:22:46 0° 4° (N) 2,592 5.8 -17.2°
Reaches altitude 10° 18:24:58 10° 356° (N) 1,705 5.0 -17.6°
Maximum altitude 18:28:19 35° 289° (WNW) 816 3.8 -18.2°
Drops below altitude 10° 18:31:40 10° 223° (SW) 1,694 5.3 -18.9°
Sets 18:33:50 0° 214° (SW) 2,572 6.1 -19.3°
